Miscellaneous Local Product
Issued by NWS Hastings, NE

Home | Current Version | Previous Version | Graphics & Text | Print | Product List | Glossary On
Versions: 1 2 3 4 5 6 7 8 9 10 11 12 13 14 15 16 17 18 19 20 21 22 23 24 25 26 27 28 29 30 31 32 33 34 35 36 37 38 39 40 41 42 43 44 45 46 47 48 49 50
000
AXUS43 KGID 152302
MISGRI

GID CWA HOURLY WEATHER ROUNDUP
NATIONAL WEATHER SERVICE HASTINGS NE
600 PM CDT SUN OCT 15 2017

NOTE: "FAIR" INDICATES FEW OR NO CLOUDS BELOW 12,000 FEET WITH NO
SIGNIFICANT WEATHER AND/OR OBSTRUCTIONS TO VISIBILITY.

...SOUTH CENTRAL NEBRASKA...

CITY           SKY/WX    TMP DP  RH WIND       PRES   REMARKS
GRAND ISLAND   CLEAR     62  31  31 NW12      30.32F
HASTINGS       CLEAR     62  29  28 NW13      30.33F
KEARNEY        CLEAR     63  31  30 NW8       30.33S
ORD            CLEAR     61  27  27 NW13      30.30S
YORK           CLEAR     63  32  31 NW15      30.32S
AURORA         CLEAR     62  29  29 NW8       30.32S
LEXINGTON      CLEAR     64  30  27 NW13      30.33S
HOLDREGE       CLEAR     63  27  25 NW6       30.33F
HEBRON         CLEAR     63  31  30 W6        30.33F

...NEBRASKA PANHANDLE...

CITY           SKY/WX    TMP DP  RH WIND       PRES   REMARKS
CHADRON        SUNNY     61  24  24 W10       30.32F
ALLIANCE       SUNNY     60  23  24 NW6       30.33F
SCOTTSBLUFF    SUNNY     63  23  21 W7        30.34F
SIDNEY         SUNNY     62  22  21 N6        30.37S

...WESTERN AND NORTH CENTRAL NEBRASKA...

CITY           SKY/WX    TMP DP  RH WIND       PRES   REMARKS
VALENTINE      CLEAR     62  28  27 NW9       30.30F
AINSWORTH      CLEAR     58  31  35 NW9G17    30.31S
ONEILL         CLEAR     59  32  36 NW14G20   30.30S
BROKEN BOW     CLEAR     62  30  29 NW10      30.31S
IMPERIAL       SUNNY     64  20  18 NW7       30.36S
NORTH PLATTE   SUNNY     63  32  31 NW12      30.33S
MCCOOK         SUNNY     64  26  23 NW8       30.35S

...EASTERN NEBRASKA...

CITY           SKY/WX    TMP DP  RH WIND       PRES   REMARKS
NORFOLK        CLEAR     60  31  33 W13       30.28S
SO SIOUX CITY  CLEAR     61  32  33 W10G21    30.25F
TEKAMAH        CLEAR     61  30  31 W6        30.27F
COLUMBUS       CLEAR     61  30  31 NW10      30.30S
ALBION         CLEAR     62  32  32 NW9       30.30S
OMAHA EPPLEY   CLEAR     60  33  36 W9        30.30S
OFFUTT AFB     CLEAR     59  33  37 W7        30.30F
MILLARD        CLEAR     60  36  39 W6        30.30F
LINCOLN        CLEAR     62  31  31 W6        30.33F
NEBRASKA CITY  CLEAR     58  34  41 W6        30.33S
BEATRICE       CLEAR     60  35  38 W6        30.33S
FALLS CITY     CLEAR     57  35  43 NW7       30.33S

...NORTHERN KANSAS...

CITY           SKY/WX    TMP DP  RH WIND       PRES   REMARKS
GOODLAND       SUNNY     64  26  23 SW5       30.37S
HILL CITY      SUNNY     66  26  22 NW8       30.36F
NORTON         CLEAR     64  19  17 NW8       30.34S
PHILLIPSBURG   CLEAR     66  27  22 W5        30.35S
SMITH CENTER   CLEAR     63  30  29 W6        30.36S
HAYS           SUNNY     64  32  30 NW5       30.37F
RUSSELL        CLEAR     63  33  32 NW9       30.36F
CONCORDIA      CLEAR     61  33  35 W8        30.35F
SALINA         CLEAR     64  34  32 W5        30.38S
TOPEKA         CLEAR     60  36  40 NW8       30.35S



USA.gov is the U.S. government's official web portal to all federal, state and local government web resources and services.